Location: Bay Ridge
(40.6340°N, 74.0146°W)
Time: 02:35:18
(UTC+00:00)

Meteor 2-2 Rocket - Pass Details

Date: 15 November 2019
Orbit: 852 x 929 km, 81.3° (Epoch: 07 December)

Event Time Altitude Azimuth Distance (km) Brightness Sun altitude
Exits shadow 09:23:56 - 352° (N) 2,670 6.7 -26.3°
Reaches altitude 10° 09:24:24 10° 353° (N) 2,491 6.5 -26.2°
Maximum altitude 09:30:03 81° 80° (E) 868 4.2 -25.1°
Drops below altitude 10° 09:35:41 10° 168° (SSE) 2,479 6.8 -24.0°
Sets 09:38:06 0° 170° (S) 3,417 7.5 -23.6°
